Location: Kitt Peak
(31.9639°N, 111.5992°W)
Time: 06:09:49
(UTC-07:00)

SEEDS - Visible Passes

Search period start: 17 September 2024 00:00
Search period end: 27 September 2024 00:00
Orbit: 541 x 549 km, 97.7° (Epoch: 17 September)

Date Brightness Start Highest point End Pass type
(mag) Time Alt. Az. Time Alt. Az. Time Alt. Az.
17 Sep ? 03:25:56 10° ENE 03:27:47 14° E 03:27:47 14° E visible
17 Sep ? 04:59:19 10° NNW 05:02:44 29° WNW 05:03:24 27° W visible
18 Sep ? 03:20:44 10° ENE 03:21:50 12° E 03:21:50 12° E visible
18 Sep ? 04:53:22 10° N 04:56:57 35° WNW 04:57:26 33° W visible
19 Sep ? 04:47:21 10° N 04:51:05 41° WNW 04:51:22 41° W visible
20 Sep ? 04:41:15 10° N 04:45:05 51° WNW 04:45:11 50° W visible
21 Sep ? 04:35:05 10° N 04:38:54 62° WNW 04:38:54 62° WNW visible
22 Sep ? 04:28:50 10° N 04:32:30 73° NW 04:32:30 73° NW visible
23 Sep ? 04:22:29 10° NNE 04:26:00 70° NNE 04:26:00 70° NNE visible
24 Sep ? 04:16:05 10° NNE 04:19:23 58° NE 04:19:23 58° NE visible
25 Sep ? 04:09:35 10° NNE 04:12:40 46° ENE 04:12:40 46° ENE visible
26 Sep ? 04:03:01 10° NNE 04:05:49 36° ENE 04:05:49 36° ENE visible
